Tracking 20626 objects as of 10-Apr-2020
HD Live streaming from Space Station
objects crossing your sky now

BREEZE-M DEB (TANK)

Track BREEZE-M DEB (TANK) now!
10-day predictions


NORAD ID: 37828
Int'l Code: 2011-054C
Perigee: 301.1 km
Apogee: 17,213.0 km
Inclination: 49.5 °
Period: 308.6 minutes
Semi major axis: 15128 km
RCS: 6.7148 m2 (large)
Launch date: September 29, 2011
Source: Commonwealth of Independent States (former USSR) (CIS)
Launch site: TYURATAM MISSILE AND SPACE COMPLEX (TTMTR)

Note: This is SATELLITE DEBRIS
aabbcc
Your satellite tracking list
Your tracking list is empty




NASA's NSSDC Master Catalog

Two Line Element Set (TLE):
1 37828U 11054C   20099.40928176 +.00001486 +00000-0 +29033-3 0  9995
2 37828 049.4858 053.7276 5589597 301.2573 015.7734 04.66584214141202
Source of the keplerian elements: AFSPC